Temperature
21 20 19 20 25 28 28 29 29 29 28 27 27 27 27 27 26 25 22 21 20 20 20 20 20 19 19 19 19 19 19 19 19 19 19 19 19 19 19 19 19 18 18 18 18 18 18 18 18
20 19 20 23 28 28 28 29 29 28 28 27 27 26 26 26 24 23 21 20 20 20 20 19 20 19 19 19 19 19 19 19 19 19 19 19 19 19 19 19 18 18 18 18 18 18 18 18 18
20 20 23 28 29 28 28 28 28 28 27 27 27 26 26 24 23 22 21 20 20 20 20 19 19 19 19 19 19 19 19 19 19 19 18 18 19 19 18 18 18 18 18 18 18 18 18 18 18
20 22 25 29 29 29 28 28 28 28 27 27 27 26 24 23 22 21 21 20 20 20 20 19 19 19 19 19 19 19 19 19 18 18 18 18 18 18 18 18 18 18 18 18 18 18 18 18 18
21 26 29 29 29 29 29 29 28 28 28 27 27 26 24 22 21 21 21 20 21 20 20 19 19 19 19 19 19 19 19 18 19 18 18 18 18 19 18 18 18 18 19 18 18 18 18 18 18
26 29 30 29 29 29 29 28 28 29 28 27 26 26 24 22 21 21 21 20 20 20 20 19 19 19 19 19 19 19 19 19 19 19 19 19 19 19 18 18 18 18 18 18 18 18 18 18 18
27 30 29 29 29 29 29 28 28 29 28 27 26 26 24 22 21 21 21 21 20 20 20 20 19 19 19 19 19 19 19 19 19 19 19 19 19 19 19 19 18 18 18 18 18 18 18 18 18
26 30 30 30 30 29 29 28 28 28 27 26 26 26 24 22 21 21 21 21 20 20 20 20 19 19 19 19 19 19 19 19 19 19 19 19 19 18 19 18 18 18 18 18 18 18 18 18 18
26 30 30 30 30 30 29 29 28 27 26 25 25 25 24 22 21 21 21 21 20 20 20 19 19 19 19 19 19 19 19 19 19 19 19 18 18 18 18 18 18 18 18 18 18 18 18 18 18
29 30 30 30 30 30 29 29 28 28 27 26 25 24 23 22 22 21 21 21 20 20 20 20 19 19 19 19 19 19 19 19 18 18 18 18 18 18 18 18 18 18 18 18 18 18 18 18 18
30 30 30 30 29 29 30 29 28 28 28 27 25 24 23 22 22 22 21 21 20 20 20 20 19 19 19 19 19 19 19 19 19 19 19 18 18 18 18 18 18 18 18 18 18 18 18 18 18
30 30 30 30 29 29 29 29 28 28 27 26 25 24 23 23 23 22 21 21 20 20 20 19 19 19 19 19 19 19 19 19 19 19 19 18 18 18 18 18 18 18 18 18 18 18 18 18 18
31 31 30 29 29 29 29 29 28 27 26 25 24 24 23 23 23 22 21 21 20 20 20 19 19 19 19 19 19 19 19 19 19 19 18 18 18 18 18 18 18 18 18 18 18 18 18 18 18
30 30 30 30 30 29 29 29 29 27 26 25 24 24 24 23 23 22 21 21 21 20 20 19 19 19 19 19 19 19 19 19 18 18 18 18 18 18 18 18 18 18 18 18 18 18 18 18 18
30 31 31 30 30 29 30 29 29 27 26 26 25 24 24 23 23 22 22 21 21 20 20 19 19 19 19 19 19 19 19 19 18 18 18 18 18 18 18 18 18 18 18 18 18 18 18 18 18
31 31 31 31 30 30 30 30 29 27 27 26 25 25 24 23 23 22 22 21 21 20 20 19 19 19 19 19 19 19 19 18 18 18 18 18 18 18 18 18 18 18 18 18 18 18 18 18 18
31 31 31 31 31 31 30 30 29 27 27 27 26 25 24 24 23 22 22 21 21 20 20 20 19 19 19 19 18 18 18 18 18 18 18 18 18 18 18 18 18 18 18 18 18 18 18 18 18
31 31 31 31 31 30 30 30 29 28 28 27 26 26 25 24 23 22 22 21 20 20 20 20 19 19 19 19 18 18 18 18 18 18 18 18 18 18 18 18 18 17 18 18 18 17 17 18 18
31 31 31 31 31 30 30 30 30 29 28 28 27 26 25 24 23 22 22 21 20 20 20 19 19 19 19 18 18 18 18 18 18 18 18 18 18 18 18 18 17 17 17 17 17 17 17 17 18
31 31 31 31 30 30 30 30 30 29 28 28 27 26 26 25 23 22 21 21 20 20 20 20 19 19 19 19 18 18 18 18 18 18 18 18 18 18 18 18 17 17 17 17 17 17 17 17 17
31 31 31 30 30 30 30 30 30 29 28 27 27 26 26 25 24 22 21 21 20 20 20 20 19 19 19 19 18 18 18 18 18 18 18 18 18 18 18 18 17 17 17 17 17 17 17 17 17
30 31 31 30 30 31 30 30 30 30 29 28 27 27 26 25 24 22 22 21 20 20 20 19 19 19 19 19 18 18 18 18 18 18 18 17 17 17 17 17 17 17 17 17 17 17 17 17 17
30 31 30 30 30 30 30 30 31 30 29 29 28 27 26 25 24 23 22 21 20 20 19 19 19 19 19 19 18 18 18 18 18 17 17 17 17 17 17 17 17 17 17 17 17 17 17 17 17
30 30 30 30 31 29 30 30 30 31 30 29 28 27 26 25 24 23 22 21 20 20 19 19 19 19 19 19 18 18 18 18 18 17 17 17 17 17 17 17 17 17 17 17 17 17 17 17 17
30 30 29 29 29 30 30 30 30 30 30 29 29 27 25 24 24 23 22 21 20 20 19 19 19 19 19 18 18 18 18 18 17 17 17 17 17 17 17 17 17 17 17 17 17 17 17 16 16
30 31 29 28 29 30 30 30 31 30 29 28 27 26 25 24 24 23 22 21 20 20 19 19 19 19 19 18 18 18 18 17 17 17 17 17 17 17 17 17 17 17 17 17 17 16 16 16 16
30 30 31 30 30 29 30 30 30 29 29 28 27 26 25 24 23 23 22 21 20 20 19 19 19 18 19 18 18 18 18 17 17 17 17 17 17 16 16 16 16 16 16 16 16 16 16 16 16
31 31 30 30 28 28 29 30 30 29 29 29 28 26 25 24 23 23 22 21 20 20 19 19 18 18 18 18 18 18 17 17 17 17 17 17 17 16 16 16 16 16 16 16 16 16 16 16 16
29 30 30 30 29 29 28 30 30 29 29 29 28 26 25 24 23 22 22 21 20 20 19 19 18 18 18 18 18 17 17 17 17 16 16 16 16 16 16 16 16 16 16 16 16 15 15 15 15
30 30 30 29 28 29 29 30 30 30 29 29 28 26 25 24 23 22 22 21 20 20 19 19 18 18 18 18 17 17 17 16 16 16 16 16 16 16 16 15 15 15 15 15 15 15 15 15 15
Wind_Speed
11 9 5 4 4 1 9 8 7 6 6 6 6 5 6 7 6 4 4 4 3 3 3 5 4 4 4 4 4 5 5 7 8 8 8 8 8 8 8 8 7 8 8 8 8 8 8 8 8
8 6 4 4 2 6 9 9 9 9 6 5 5 5 5 6 6 4 3 3 2 3 3 4 5 4 4 4 4 4 5 6 8 8 8 8 8 8 8 7 6 7 7 8 8 7 7 8 8
6 5 4 1 5 8 8 9 8 7 5 4 4 5 5 5 5 3 4 2 2 3 3 5 5 4 4 4 4 4 5 6 8 8 8 8 8 7 7 6 6 6 7 7 7 7 7 7 7
4 5 4 2 9 9 7 6 6 5 5 5 4 5 5 5 4 4 4 2 3 3 4 6 4 3 3 3 3 4 5 6 8 8 8 7 7 6 6 6 6 7 7 6 6 6 6 7 7
5 4 1 6 10 8 7 6 5 5 5 6 5 6 6 6 5 5 4 3 3 3 3 5 5 3 2 2 2 3 6 7 7 7 7 7 7 6 5 5 6 6 6 6 6 6 6 6 7
4 3 3 8 9 7 6 5 5 6 6 6 5 5 5 5 5 4 4 3 4 4 3 4 6 4 2 2 2 4 7 6 6 6 6 5 6 5 5 4 4 5 5 5 5 5 5 5 6
4 3 5 7 7 8 6 5 5 5 6 6 4 5 5 5 4 4 4 3 4 4 3 2 3 5 5 4 4 4 6 6 6 5 5 5 5 5 4 4 4 4 3 3 4 4 4 5 6
4 2 4 6 7 7 5 4 4 5 6 5 3 4 4 4 3 4 4 4 4 4 4 3 4 2 2 4 7 5 6 6 5 5 5 5 6 6 6 5 5 3 3 3 3 4 4 5 5
4 1 5 7 6 5 4 3 4 3 6 5 5 6 6 6 4 4 4 4 5 5 5 4 4 3 2 3 5 6 8 7 5 5 6 5 3 4 5 5 5 3 2 2 2 3 5 7 7
3 2 5 5 5 4 3 3 3 3 5 4 5 6 7 6 4 4 4 4 5 5 5 5 4 4 4 3 3 3 4 5 4 3 3 3 3 2 2 6 5 3 2 2 3 4 7 8 5
2 2 3 2 3 2 2 3 2 2 3 3 4 6 6 5 5 4 4 4 4 4 4 4 4 4 4 4 3 3 3 3 4 4 3 3 2 2 2 2 4 3 3 2 2 4 3 2 2
2 1 2 1 2 1 1 3 3 3 4 4 5 6 6 5 4 4 4 3 4 4 4 4 4 4 4 4 3 3 3 3 3 4 3 2 1 1 1 1 0 1 1 1 1 1 1 1 2
2 1 1 1 1 1 3 3 3 4 4 6 6 6 5 4 4 4 3 3 4 4 4 4 3 3 4 3 2 3 3 3 3 3 3 2 1 1 1 1 1 1 0 1 1 1 0 1 2
2 1 1 1 3 3 3 3 3 4 6 6 6 5 4 3 3 3 3 3 3 3 3 3 3 4 3 3 3 3 2 3 3 3 3 2 2 2 1 1 1 1 1 1 1 1 1 1 1
3 3 3 2 2 2 3 3 3 6 7 6 5 4 4 3 3 3 3 2 2 2 2 3 3 4 4 4 3 3 2 3 3 3 3 3 3 2 1 1 1 1 1 1 1 1 1 1 1
5 5 3 3 2 2 5 1 5 6 7 6 5 4 4 4 3 2 2 2 2 2 3 3 3 5 4 4 3 3 3 3 3 3 3 3 3 2 1 1 1 2 1 1 1 1 1 1 1
5 3 2 2 3 2 4 1 5 6 6 5 5 5 5 4 3 3 2 3 3 3 4 5 4 4 4 4 3 3 3 3 3 3 3 3 3 2 1 2 2 1 1 1 1 1 1 1 1
3 3 3 2 2 4 5 2 4 6 6 5 5 5 5 4 4 4 4 4 4 4 4 5 5 4 4 4 3 3 3 2 2 3 3 3 3 3 2 2 2 2 1 1 1 1 1 1 1
5 6 5 3 2 5 6 5 4 6 7 6 5 5 5 5 4 5 5 5 5 4 4 4 4 4 3 3 2 2 2 2 2 2 3 3 3 2 2 2 2 1 1 1 1 1 0 0 1
7 7 5 2 2 5 6 6 5 6 7 7 6 5 5 5 5 6 6 6 5 5 4 4 4 4 3 3 2 1 1 1 2 2 3 3 2 2 1 1 1 1 1 1 1 1 2 1 1
8 7 6 4 3 6 6 6 6 6 7 7 6 5 5 5 5 7 7 6 5 5 5 4 4 4 3 3 2 2 1 1 2 2 2 2 2 2 2 2 2 2 2 1 2 2 2 2 1
7 5 6 6 7 4 5 6 3 6 7 8 7 6 6 6 6 6 7 7 6 5 5 5 4 4 3 3 3 2 1 1 1 1 1 1 1 1 2 2 2 2 2 2 2 2 3 2 2
5 4 6 7 8 8 6 7 2 5 6 8 8 7 7 7 6 7 7 7 7 6 6 5 5 4 4 3 3 2 2 1 1 1 2 1 2 2 2 2 2 2 2 3 3 3 3 2 3
5 5 7 9 9 9 5 7 3 2 4 6 8 8 7 7 7 6 7 7 6 6 6 6 5 4 4 4 3 2 2 1 1 1 1 0 1 1 2 2 2 2 2 2 2 3 2 2 3
9 8 6 7 7 6 2 6 3 1 2 4 6 8 8 7 7 7 7 7 7 7 7 6 6 5 5 4 4 3 2 2 1 0 0 1 1 1 2 2 2 2 2 2 3 2 3 3 2
10 11 8 7 6 5 4 5 0 3 2 3 5 7 8 8 7 7 7 7 7 7 7 7 6 6 5 5 4 3 2 2 1 0 1 1 1 2 2 2 2 2 2 3 2 3 3 2 2
9 10 8 10 9 9 5 4 2 3 3 4 6 7 8 8 8 7 7 7 7 8 8 8 7 6 6 5 4 3 2 1 0 0 0 1 1 1 2 2 2 2 2 3 3 2 3 3 3
8 7 7 8 7 9 7 6 3 4 4 5 7 8 8 8 8 7 7 7 6 7 8 8 8 7 6 5 4 4 3 2 2 1 1 1 1 1 1 1 2 2 2 3 3 3 3 3 3
9 9 8 8 8 9 7 4 1 1 3 4 6 7 8 8 8 7 7 7 7 7 7 8 8 8 6 6 5 4 3 3 2 1 1 0 0 1 1 1 2 2 2 3 3 3 3 3 4
9 10 10 9 8 9 9 3 4 1 2 3 4 6 7 7 7 7 7 8 7 7 7 7 8 7 6 6 5 4 3 3 2 2 1 1 1 1 1 1 1 2 2 3 3 4 4 4 4
Wind_Direction
180 182 203 231 236 89 52 44 41 44 44 45 43 38 37 28 20 36 59 63 42 66 108 146 151 162 164 169 163 165 169 168 168 168 166 167 168 169 169 170 170 169 171 171 170 172 174 177 182
178 182 227 244 328 59 55 41 45 46 51 55 50 46 50 49 43 64 73 57 41 61 93 102 126 156 163 167 168 173 171 171 169 169 169 170 169 168 170 171 171 171 177 180 178 176 175 181 183
183 219 258 281 42 48 49 42 46 55 58 45 47 45 40 40 44 51 69 75 55 61 74 94 120 145 160 168 176 182 173 165 163 163 164 163 164 167 168 168 170 175 178 175 177 183 183 183 182
212 228 236 48 61 54 50 44 46 51 59 47 50 68 65 44 39 68 91 79 67 67 74 95 110 128 149 168 181 186 174 158 155 153 152 155 158 159 161 167 168 173 178 181 182 188 194 196 193
243 263 161 73 65 61 58 51 50 51 54 55 55 75 70 58 65 87 99 83 65 69 75 95 105 117 138 159 175 169 165 158 153 153 156 158 158 158 159 163 169 176 182 186 191 195 198 195 194
257 271 47 61 65 66 60 56 57 54 65 70 64 73 74 77 74 86 87 74 57 58 68 97 131 134 128 144 147 143 147 146 149 152 153 160 166 165 164 156 163 169 176 184 192 197 202 199 196
307 8 48 51 62 67 54 43 46 50 58 57 52 74 85 81 78 85 83 75 60 52 45 70 113 138 153 149 135 132 138 138 142 145 150 156 163 165 156 157 150 147 157 173 184 197 198 203 207
300 314 59 54 52 61 58 53 50 40 61 59 38 61 83 99 101 94 86 69 56 47 45 69 84 79 122 142 144 147 142 140 143 147 151 163 175 169 163 163 137 145 158 177 185 193 208 212 212
270 303 47 39 39 52 56 65 78 78 87 77 59 57 87 115 117 100 91 79 63 49 50 61 68 60 69 85 119 151 154 149 161 155 158 179 165 149 159 122 125 129 135 185 201 207 217 219 206
265 7 41 28 20 30 49 55 95 125 100 88 88 83 100 120 122 104 90 82 67 52 55 61 58 54 59 74 96 120 126 119 123 113 127 135 128 145 128 128 141 144 161 183 195 224 223 230 203
283 356 19 28 14 11 49 80 91 103 88 91 108 113 118 127 129 116 97 81 72 64 56 60 70 58 51 67 76 82 87 98 104 98 106 112 113 117 115 132 145 152 179 190 174 219 227 219 206
257 325 331 353 351 338 85 105 102 74 69 85 113 126 129 129 125 119 109 94 84 77 71 61 69 77 64 58 67 75 75 77 79 91 88 88 88 76 79 80 79 174 170 176 231 249 261 246 210
249 299 344 18 108 113 127 111 105 103 105 109 121 130 132 130 122 117 110 99 89 85 79 76 70 72 75 77 63 75 66 63 78 73 85 76 86 74 62 42 16 322 311 209 244 273 317 252 218
307 274 203 131 132 149 145 128 130 124 135 134 140 142 143 138 131 126 126 110 102 93 86 88 96 97 94 90 80 69 65 79 67 68 68 53 49 50 51 48 8 348 330 350 311 321 319 301 253
237 223 184 159 165 167 191 148 130 137 151 153 159 159 159 161 155 147 139 129 113 106 99 107 119 109 105 94 83 72 67 70 63 61 65 51 46 52 49 45 3 5 9 21 345 356 325 294 242
221 227 216 149 179 192 241 140 130 153 167 168 173 177 179 178 180 167 158 150 135 123 116 114 113 113 108 98 86 76 63 63 58 55 63 58 47 47 45 42 28 36 29 17 13 315 294 343 336
214 240 256 170 184 218 243 224 136 170 184 182 185 190 192 185 185 179 175 157 141 131 126 123 118 118 111 106 102 88 80 73 66 66 57 56 47 43 46 51 36 18 27 12 336 23 316 15 8
251 263 256 255 196 241 249 248 172 184 200 199 192 194 198 196 184 168 160 147 139 133 130 128 128 120 124 122 115 100 82 75 70 65 56 48 45 45 23 58 36 360 26 7 3 11 345 320 322
275 271 270 273 253 252 259 261 225 200 204 206 199 197 195 193 169 158 157 150 143 138 134 131 126 122 128 121 117 114 96 76 65 62 55 47 38 41 34 33 44 355 30 359 349 329 169 275 322
253 262 264 242 232 263 269 265 236 211 210 210 206 202 196 182 162 159 160 158 157 149 147 143 137 130 133 125 124 115 94 89 79 62 63 41 39 27 38 28 348 12 5 20 359 333 312 323 307
242 255 264 268 245 242 270 254 217 210 206 208 209 204 193 184 177 166 167 167 166 161 157 146 143 142 138 137 136 122 127 128 91 76 69 45 31 19 10 11 354 348 332 2 333 319 302 299 298
242 249 257 251 256 264 266 288 225 197 203 203 203 196 186 176 173 168 167 169 173 168 158 151 147 147 145 147 138 139 141 117 74 63 60 48 35 23 14 7 357 343 336 342 310 323 301 296 299
251 245 244 251 262 270 251 270 253 173 206 200 195 191 179 172 169 167 168 171 174 168 161 155 152 153 153 155 154 164 153 125 95 78 75 39 56 38 18 5 352 341 334 341 332 324 314 312 312
213 214 229 238 252 256 261 269 272 172 213 189 184 182 176 169 167 164 164 166 172 170 165 158 157 162 164 163 157 166 153 132 95 54 33 19 55 42 29 3 355 334 340 339 320 314 313 318 321
219 232 238 236 235 251 210 256 278 90 162 193 182 178 175 171 169 167 164 166 170 172 169 167 168 172 174 169 170 171 172 171 170 228 59 339 15 33 22 1 351 341 340 334 324 317 322 316 309
224 241 253 267 267 267 211 251 315 103 139 173 176 171 172 174 171 169 168 166 168 172 174 173 175 175 173 167 166 169 187 198 180 99 333 360 2 17 16 2 353 347 339 338 330 318 319 323 307
224 234 259 268 271 270 253 238 203 151 170 172 170 170 173 174 169 166 164 163 168 170 174 176 175 174 171 168 168 171 180 197 188 174 250 11 13 8 16 6 357 350 351 343 325 329 323 318 302
247 236 235 247 263 265 258 248 243 176 179 180 179 179 174 171 170 168 165 162 166 168 167 170 170 173 174 174 181 173 178 179 187 205 47 15 13 10 2 5 355 349 348 342 323 322 337 322 315
208 219 238 251 258 267 271 264 92 174 194 194 183 179 178 176 173 171 171 166 166 165 164 165 169 171 174 176 178 179 178 176 174 178 182 125 31 5 352 356 350 341 344 343 336 331 334 325 316
235 236 234 242 249 257 272 270 103 130 179 184 176 173 172 177 174 171 169 167 166 166 166 168 172 173 174 174 174 172 170 174 172 158 152 131 77 24 17 4 352 338 355 346 337 330 331 323 322
Height
1500 1500 1501 1503 1497 1490 1491 1487 1484 1485 1486 1489 1490 1489 1489 1490 1492 1499 1499 1496 1495 1494 1493 1490 1489 1490 1491 1492 1492 1492 1493 1494 1495 1497 1499 1501 1502 1504 1505 1507 1508 1510 1511 1512 1513 1515 1516 1517 1518
1502 1502 1503 1500 1490 1494 1495 1487 1486 1488 1490 1491 1492 1492 1491 1493 1496 1498 1498 1496 1496 1495 1493 1491 1489 1489 1490 1491 1491 1492 1492 1493 1494 1496 1498 1500 1502 1504 1505 1506 1508 1509 1511 1512 1513 1514 1515 1516 1517
1502 1503 1503 1492 1489 1494 1495 1489 1489 1490 1492 1492 1493 1493 1495 1497 1499 1499 1498 1497 1496 1495 1494 1491 1490 1490 1490 1491 1491 1491 1492 1492 1494 1496 1498 1500 1502 1503 1505 1506 1508 1509 1510 1512 1513 1514 1515 1516 1517
1504 1504 1499 1490 1492 1491 1490 1489 1490 1491 1492 1493 1493 1495 1498 1501 1500 1500 1498 1497 1497 1496 1495 1493 1491 1491 1490 1490 1490 1489 1489 1491 1494 1496 1498 1500 1502 1504 1505 1507 1508 1509 1510 1511 1512 1513 1514 1515 1516
1504 1500 1490 1490 1491 1490 1489 1491 1491 1491 1492 1494 1494 1496 1499 1502 1501 1500 1499 1498 1498 1497 1496 1494 1492 1492 1491 1491 1489 1487 1487 1492 1495 1497 1499 1501 1503 1504 1506 1507 1508 1509 1510 1511 1512 1513 1513 1514 1515
1502 1494 1491 1494 1492 1490 1491 1492 1492 1492 1493 1495 1495 1496 1501 1503 1501 1501 1500 1499 1499 1497 1496 1494 1493 1492 1492 1491 1490 1488 1489 1493 1497 1498 1500 1502 1503 1505 1506 1507 1508 1509 1509 1510 1511 1512 1513 1513 1514
1501 1491 1492 1492 1492 1491 1493 1494 1493 1493 1494 1497 1497 1497 1501 1503 1502 1502 1501 1500 1499 1497 1495 1493 1494 1494 1493 1492 1492 1492 1493 1495 1497 1499 1501 1503 1504 1505 1506 1507 1508 1508 1509 1510 1510 1511 1512 1512 1513
1501 1492 1490 1490 1492 1493 1494 1495 1496 1496 1497 1500 1500 1499 1502 1504 1503 1502 1502 1501 1500 1498 1495 1492 1494 1495 1495 1494 1493 1494 1496 1497 1499 1500 1502 1503 1504 1506 1507 1508 1508 1508 1509 1510 1510 1510 1511 1511 1512
1501 1493 1492 1491 1491 1492 1494 1495 1497 1498 1499 1501 1501 1502 1504 1504 1504 1503 1503 1502 1501 1499 1496 1495 1495 1496 1496 1496 1495 1496 1497 1499 1500 1501 1502 1504 1506 1507 1508 1508 1508 1508 1509 1509 1509 1510 1510 1510 1511
1498 1492 1493 1491 1491 1491 1493 1495 1496 1497 1499 1501 1503 1504 1505 1505 1505 1504 1504 1503 1502 1501 1499 1498 1497 1497 1497 1497 1497 1498 1500 1501 1501 1503 1504 1505 1506 1507 1508 1508 1508 1508 1509 1509 1509 1509 1509 1510 1511
1496 1493 1492 1492 1493 1493 1493 1495 1497 1496 1497 1501 1503 1505 1505 1506 1506 1505 1505 1505 1504 1503 1502 1501 1500 1499 1499 1499 1499 1500 1501 1502 1503 1504 1505 1506 1507 1508 1508 1508 1509 1509 1509 1509 1509 1509 1509 1509 1510
1495 1493 1493 1493 1494 1494 1494 1495 1497 1498 1500 1502 1504 1505 1506 1506 1506 1506 1506 1506 1505 1505 1504 1503 1502 1501 1501 1501 1502 1502 1503 1504 1505 1505 1506 1507 1507 1508 1508 1508 1509 1509 1509 1508 1509 1508 1508 1508 1508
1493 1493 1494 1494 1494 1494 1494 1495 1497 1500 1502 1504 1505 1506 1506 1506 1507 1507 1507 1507 1506 1506 1505 1504 1503 1503 1503 1503 1504 1505 1505 1506 1506 1506 1507 1507 1508 1508 1508 1508 1508 1509 1509 1509 1508 1508 1507 1507 1507
1494 1493 1493 1493 1493 1495 1494 1495 1497 1500 1502 1504 1505 1506 1507 1507 1508 1508 1508 1507 1507 1507 1506 1505 1505 1504 1504 1505 1505 1506 1507 1507 1507 1507 1508 1508 1508 1508 1508 1508 1508 1508 1508 1509 1508 1507 1507 1506 1506
1494 1492 1490 1491 1492 1493 1493 1493 1495 1499 1502 1503 1505 1506 1507 1507 1508 1508 1508 1508 1508 1507 1507 1506 1506 1506 1506 1506 1507 1508 1508 1508 1508 1508 1508 1508 1508 1508 1508 1508 1508 1508 1508 1508 1507 1507 1507 1506 1506
1490 1489 1490 1489 1490 1492 1493 1494 1494 1499 1500 1502 1504 1505 1506 1507 1508 1508 1508 1508 1508 1508 1507 1507 1507 1507 1507 1507 1508 1509 1509 1509 1509 1509 1509 1509 1509 1509 1508 1508 1509 1508 1508 1508 1507 1507 1507 1506 1506
1488 1491 1490 1488 1488 1489 1489 1490 1493 1497 1499 1500 1502 1504 1505 1506 1507 1508 1508 1508 1508 1508 1507 1507 1507 1508 1508 1508 1509 1509 1509 1510 1510 1510 1510 1510 1509 1509 1509 1509 1509 1509 1509 1508 1508 1507 1507 1506 1505
1491 1489 1488 1488 1486 1487 1487 1487 1490 1495 1497 1498 1500 1502 1504 1505 1506 1507 1507 1508 1508 1508 1508 1508 1508 1508 1509 1509 1510 1510 1510 1511 1511 1511 1510 1510 1510 1510 1510 1510 1509 1509 1509 1508 1508 1507 1506 1506 1505
1486 1487 1488 1486 1485 1487 1486 1486 1487 1491 1494 1495 1497 1499 1501 1503 1505 1506 1507 1508 1508 1508 1508 1508 1509 1509 1509 1510 1510 1511 1511 1511 1511 1511 1511 1510 1510 1510 1510 1510 1509 1509 1509 1508 1508 1507 1507 1506 1506
1486 1488 1487 1485 1485 1486 1485 1484 1484 1487 1491 1493 1495 1497 1499 1501 1504 1505 1506 1507 1508 1508 1508 1508 1509 1509 1509 1510 1510 1511 1511 1512 1512 1512 1511 1511 1511 1510 1511 1510 1510 1509 1509 1508 1508 1507 1507 1507 1506
1485 1486 1485 1486 1485 1483 1485 1484 1482 1484 1488 1491 1493 1495 1497 1500 1502 1504 1505 1506 1507 1508 1508 1508 1508 1509 1509 1510 1511 1512 1512 1512 1513 1512 1512 1511 1511 1511 1510 1510 1509 1509 1509 1509 1508 1507 1507 1507 1506
1486 1480 1482 1484 1486 1485 1486 1492 1480 1480 1484 1487 1490 1493 1495 1498 1500 1502 1504 1505 1506 1507 1508 1508 1508 1509 1509 1511 1512 1512 1513 1513 1513 1512 1512 1511 1511 1511 1510 1510 1509 1509 1509 1508 1507 1507 1507 1506 1506
1481 1480 1481 1482 1483 1484 1482 1488 1479 1477 1482 1482 1486 1490 1493 1496 1498 1500 1502 1504 1505 1507 1507 1507 1508 1508 1509 1510 1511 1512 1512 1513 1513 1512 1512 1512 1511 1510 1510 1510 1509 1508 1508 1507 1506 1506 1505 1505 1505
1480 1482 1482 1480 1480 1493 1483 1487 1483 1473 1476 1477 1482 1487 1491 1494 1497 1499 1501 1503 1504 1506 1507 1507 1507 1508 1509 1510 1510 1511 1512 1512 1512 1512 1512 1512 1511 1511 1510 1509 1508 1508 1507 1506 1505 1505 1504 1503 1503
1480 1484 1493 1495 1493 1489 1477 1484 1479 1470 1473 1476 1480 1485 1489 1493 1495 1497 1499 1501 1503 1504 1505 1506 1506 1507 1508 1509 1510 1510 1511 1511 1511 1512 1511 1511 1511 1510 1509 1509 1508 1507 1506 1505 1505 1504 1503 1503 1502
1476 1478 1493 1503 1497 1484 1479 1482 1472 1471 1474 1477 1480 1484 1487 1491 1493 1496 1498 1499 1501 1502 1504 1505 1505 1506 1507 1508 1509 1509 1510 1511 1511 1511 1511 1511 1511 1510 1509 1508 1507 1506 1505 1505 1504 1504 1502 1501 1500
1476 1475 1471 1480 1482 1488 1478 1473 1470 1471 1473 1476 1479 1482 1485 1488 1491 1494 1496 1498 1499 1501 1502 1503 1504 1505 1506 1507 1508 1509 1509 1509 1510 1510 1510 1510 1509 1509 1508 1507 1506 1505 1504 1504 1503 1502 1501 1500 1500
1470 1469 1474 1480 1496 1497 1483 1477 1473 1471 1472 1473 1476 1480 1483 1487 1489 1492 1494 1496 1498 1500 1501 1502 1503 1504 1505 1506 1507 1508 1508 1508 1509 1509 1509 1509 1508 1508 1507 1506 1506 1505 1504 1503 1502 1501 1500 1499 1498
1473 1473 1473 1474 1478 1489 1492 1480 1463 1467 1469 1471 1474 1478 1482 1485 1487 1490 1492 1494 1496 1498 1500 1501 1502 1503 1504 1505 1506 1507 1507 1508 1508 1508 1508 1508 1507 1507 1506 1505 1505 1504 1503 1502 1501 1500 1499 1498 1497
1467 1468 1471 1481 1483 1479 1481 1477 1462 1465 1467 1470 1473 1477 1481 1484 1486 1489 1491 1493 1495 1497 1498 1499 1501 1502 1503 1504 1505 1506 1506 1507 1507 1507 1507 1507 1506 1506 1505 1505 1504 1503 1502 1501 1500 1499 1498 1497 1496